Location: Sungai Bunut
(2.6333°N, 113.7333°E)
Time: 15:08:58
(UTC+00:00)

Tiros 1 despin weight - All Passes

Search period start: 03 December 2023 00:00
Search period end: 13 December 2023 00:00
Orbit: 583 x 628 km, 48.2° (Epoch: 28 November)

Date Brightness Start Highest point End Pass type
(mag) Time Alt. Az. Time Alt. Az. Time Alt. Az.
03 Dec - 07:05:00 10° S 07:07:49 16° SE 07:10:36 10° E daylight
03 Dec - 08:44:53 10° WSW 08:48:54 34° NW 08:52:52 10° NNE daylight
03 Dec - 19:08:24 10° NNW 19:12:35 39° NE 19:16:49 10° ESE visible
03 Dec - 20:51:08 10° W 20:53:41 15° SW 20:56:16 10° SSW visible
04 Dec - 07:15:54 10° SSW 07:20:05 39° SE 07:24:12 10° ENE daylight
04 Dec - 08:58:48 10° W 09:01:12 14° NW 09:03:34 10° NNW daylight
04 Dec - 19:20:21 10° NW 19:24:48 80° SW 19:29:21 10° SE visible
05 Dec - 07:27:51 10° SW 07:32:18 79° NW 07:36:42 10° NE daylight
05 Dec - 17:52:50 10° N 17:55:56 18° NE 17:59:04 10° E night (unlit)
05 Dec - 19:33:05 10° WNW 19:37:02 31° SW 19:41:04 10° SSE visible
06 Dec - 06:00:19 10° S 06:03:27 18° SE 06:06:33 10° E daylight
06 Dec - 07:40:37 10° WSW 07:44:32 30° NW 07:48:24 10° NNE daylight
06 Dec - 18:03:58 10° NNW 18:08:11 44° NE 18:12:28 10° ESE night (unlit)
06 Dec - 19:47:11 10° WSW 19:49:18 13° SW 19:51:26 10° SSW visible
07 Dec - 06:11:24 10° SSW 06:15:41 44° SE 06:19:54 10° ENE daylight
07 Dec - 07:54:46 10° WNW 07:56:48 13° NW 07:58:49 10° NNW daylight
07 Dec - 18:15:58 10° NW 18:20:23 71° SW 18:24:52 10° SSE night (unlit)
08 Dec - 06:23:24 10° SW 06:27:52 70° NW 06:32:16 10° NNE daylight
08 Dec - 16:48:13 10° N 16:51:29 20° NE 16:54:48 10° E night (unlit)
08 Dec - 18:28:47 10° WNW 18:32:34 28° SW 18:36:25 10° S night (unlit)
09 Dec - 04:55:35 10° S 04:58:58 21° SE 05:02:19 10° E daylight
09 Dec - 06:36:14 10° WSW 06:40:04 27° NW 06:43:50 10° N daylight
09 Dec - 16:59:27 10° NNW 17:03:42 49° NE 17:08:01 10° SE night (unlit)
09 Dec - 18:43:16 10° WSW 18:44:49 12° SW 18:46:22 10° SSW night (unlit)
10 Dec - 05:06:47 10° SSW 05:11:10 50° SE 05:15:29 10° NE daylight
10 Dec - 06:50:44 10° WNW 06:52:18 12° NW 06:53:52 10° NNW daylight
10 Dec - 17:11:30 10° NW 17:15:51 63° SW 17:20:17 10° SSE night (unlit)
11 Dec - 05:18:52 10° SW 05:23:19 62° NW 05:27:43 10° NNE daylight
11 Dec - 15:43:30 10° N 15:46:57 22° NE 15:50:25 10° ESE night (unlit)
11 Dec - 17:24:24 10° WNW 17:28:02 25° SW 17:31:42 10° S night (unlit)
12 Dec - 03:50:47 10° S 03:54:24 23° SE 03:57:58 10° ENE daylight
12 Dec - 05:31:47 10° WSW 05:35:29 25° NW 05:39:09 10° N daylight
12 Dec - 15:54:50 10° NNW 15:59:07 55° NE 16:03:28 10° SE night (unlit)
12 Dec - 17:39:45 10° SW 17:40:14 10° SW 17:40:43 10° SW night (unlit)
